Back to catalog

STARLINK-35152

AliveCommunicationsSSO
NORAD 65530·PAYLOAD·🇺🇸 United States

Launched Sep 6, 2025 from Cape Canaveral Space Force Station

Loading…

Next Passes (next 24 hours)

TLE

FreshSource: CelesTrak SupGP

Epoch: Sep 14, 2026, 21:33 UTC

1 65530C 25200L   26257.89840278 -.00013123  00000+0 -40747-3 0  2579
2 65530  97.2844 324.3474 0001213  90.4410 192.5952 15.33439396    17

Track STARLINK-35152 in real time with AllMySat

Download on the App Store